Year,Month,Day,Hour,Minute,Value (Times are PST for temperature in C)
2016,07,10,00,00,12.90
2016,07,10,00,01,12.90
2016,07,10,00,02,12.90
2016,07,10,00,03,12.90
2016,07,10,00,04,12.80
2016,07,10,00,05,12.80
2016,07,10,00,06,12.80
2016,07,10,00,07,12.80
2016,07,10,00,08,12.90
2016,07,10,00,09,12.80
2016,07,10,00,10,12.80
2016,07,10,00,11,12.80
2016,07,10,00,12,12.80
2016,07,10,00,13,12.80
2016,07,10,00,14,12.80
2016,07,10,00,15,12.80
2016,07,10,00,16,12.80
2016,07,10,00,17,12.80
2016,07,10,00,18,12.80
2016,07,10,00,19,12.80
2016,07,10,00,20,12.80
2016,07,10,00,21,12.80
2016,07,10,00,22,12.80
2016,07,10,00,23,12.80
2016,07,10,00,24,12.80
2016,07,10,00,25,12.80
2016,07,10,00,26,12.80
2016,07,10,00,27,12.80
2016,07,10,00,28,12.70
2016,07,10,00,29,12.70
2016,07,10,00,30,12.70
2016,07,10,00,31,12.70
2016,07,10,00,32,12.70
2016,07,10,00,33,12.70
2016,07,10,00,34,12.70
2016,07,10,00,35,12.70
2016,07,10,00,36,12.70
2016,07,10,00,37,12.60
2016,07,10,00,38,12.60
2016,07,10,00,39,12.60
2016,07,10,00,40,12.60
2016,07,10,00,41,12.60
2016,07,10,00,42,12.60
2016,07,10,00,43,12.60
2016,07,10,00,44,12.60
2016,07,10,00,45,12.60
2016,07,10,00,46,12.60
2016,07,10,00,47,12.60
2016,07,10,00,48,12.60
2016,07,10,00,49,12.60
2016,07,10,00,50,12.50
2016,07,10,00,51,12.50
2016,07,10,00,52,12.50
2016,07,10,00,53,12.50
2016,07,10,00,54,12.50
2016,07,10,00,55,12.50
2016,07,10,00,56,12.40
2016,07,10,00,57,12.40
2016,07,10,00,58,12.40
2016,07,10,00,59,12.40
2016,07,10,01,00,12.40
2016,07,10,01,01,12.40
2016,07,10,01,02,12.40
2016,07,10,01,03,12.40
2016,07,10,01,04,12.30
2016,07,10,01,05,12.30
2016,07,10,01,06,12.30
2016,07,10,01,07,12.30
2016,07,10,01,08,12.30
2016,07,10,01,09,12.30
2016,07,10,01,10,12.20
2016,07,10,01,11,12.20
2016,07,10,01,12,12.20
2016,07,10,01,13,12.20
2016,07,10,01,14,12.20
2016,07,10,01,15,12.20
2016,07,10,01,16,12.10
2016,07,10,01,17,12.10
2016,07,10,01,18,12.10
2016,07,10,01,19,12.00
2016,07,10,01,20,12.00
2016,07,10,01,21,12.00
2016,07,10,01,22,11.90
2016,07,10,01,23,11.90
2016,07,10,01,24,11.90
2016,07,10,01,25,11.90
2016,07,10,01,26,11.90
2016,07,10,01,27,11.80
2016,07,10,01,28,11.80
2016,07,10,01,29,11.80
2016,07,10,01,30,11.80
2016,07,10,01,31,11.80
2016,07,10,01,32,11.80
2016,07,10,01,33,11.70
2016,07,10,01,34,11.70
2016,07,10,01,35,11.70
2016,07,10,01,36,11.70
2016,07,10,01,37,11.60
2016,07,10,01,38,11.60
2016,07,10,01,39,11.60
2016,07,10,01,40,11.60
2016,07,10,01,41,11.60
2016,07,10,01,42,11.60
2016,07,10,01,43,11.50
2016,07,10,01,44,11.50
2016,07,10,01,45,11.50
2016,07,10,01,46,11.50
2016,07,10,01,47,11.50
2016,07,10,01,48,11.40
2016,07,10,01,49,11.40
2016,07,10,01,50,11.40
2016,07,10,01,51,11.40
2016,07,10,01,52,11.40
2016,07,10,01,53,11.40
2016,07,10,01,54,11.40
2016,07,10,01,55,11.30
2016,07,10,01,56,11.30
2016,07,10,01,57,11.30
2016,07,10,01,58,11.30
2016,07,10,01,59,11.30
2016,07,10,02,00,11.30
2016,07,10,02,01,11.30
2016,07,10,02,02,11.30
2016,07,10,02,03,11.20
2016,07,10,02,04,11.20
2016,07,10,02,05,11.20
2016,07,10,02,06,11.20
2016,07,10,02,07,11.20
2016,07,10,02,08,11.20
2016,07,10,02,09,11.20
2016,07,10,02,10,11.20
2016,07,10,02,11,11.20
2016,07,10,02,12,11.20
2016,07,10,02,13,11.20
2016,07,10,02,14,11.20
2016,07,10,02,15,11.20
2016,07,10,02,16,11.20
2016,07,10,02,17,11.20
2016,07,10,02,18,11.10
2016,07,10,02,19,11.10
2016,07,10,02,20,11.10
2016,07,10,02,21,11.10
2016,07,10,02,22,11.10
2016,07,10,02,23,11.10
2016,07,10,02,24,11.10
2016,07,10,02,25,11.10
2016,07,10,02,26,11.10
2016,07,10,02,27,11.00
2016,07,10,02,28,11.00
2016,07,10,02,29,11.00
2016,07,10,02,30,11.00
2016,07,10,02,31,10.90
2016,07,10,02,32,10.90
2016,07,10,02,33,10.90
2016,07,10,02,34,10.90
2016,07,10,02,35,10.90
2016,07,10,02,36,10.90
2016,07,10,02,37,10.90
2016,07,10,02,38,10.80
2016,07,10,02,39,10.80
2016,07,10,02,40,10.80
2016,07,10,02,41,10.80
2016,07,10,02,42,10.80
2016,07,10,02,43,10.80
2016,07,10,02,44,10.80
2016,07,10,02,45,10.80
2016,07,10,02,46,10.70
2016,07,10,02,47,10.70
2016,07,10,02,48,10.70
2016,07,10,02,49,10.70
2016,07,10,02,50,10.70
2016,07,10,02,51,10.70
2016,07,10,02,52,10.70
2016,07,10,02,53,10.70
2016,07,10,02,54,10.70
2016,07,10,02,55,10.70
2016,07,10,02,56,10.70
2016,07,10,02,57,10.70
2016,07,10,02,58,10.70
2016,07,10,02,59,10.60
2016,07,10,03,00,10.60
2016,07,10,03,01,10.60
2016,07,10,03,02,10.60
2016,07,10,03,03,10.60
2016,07,10,03,04,10.60
2016,07,10,03,05,10.60
2016,07,10,03,06,10.60
2016,07,10,03,07,10.60
2016,07,10,03,08,10.60
2016,07,10,03,09,10.60
2016,07,10,03,10,10.60
2016,07,10,03,11,10.50
2016,07,10,03,12,10.50
2016,07,10,03,13,10.50
2016,07,10,03,14,10.50
2016,07,10,03,15,10.50
2016,07,10,03,16,10.50
2016,07,10,03,17,10.50
2016,07,10,03,18,10.40
2016,07,10,03,19,10.40
2016,07,10,03,20,10.40
2016,07,10,03,21,10.40
2016,07,10,03,22,10.40
2016,07,10,03,23,10.40
2016,07,10,03,24,10.40
2016,07,10,03,25,10.40
2016,07,10,03,26,10.40
2016,07,10,03,27,10.40
2016,07,10,03,28,10.40
2016,07,10,03,29,10.40
2016,07,10,03,30,10.30
2016,07,10,03,31,10.30
2016,07,10,03,32,10.30
2016,07,10,03,33,10.30
2016,07,10,03,34,10.30
2016,07,10,03,35,10.30
2016,07,10,03,36,10.30
2016,07,10,03,37,10.30
2016,07,10,03,38,10.30
2016,07,10,03,39,10.30
2016,07,10,03,40,10.30
2016,07,10,03,41,10.30
2016,07,10,03,42,10.30
2016,07,10,03,43,10.20
2016,07,10,03,44,10.20
2016,07,10,03,45,10.30
2016,07,10,03,46,10.20
2016,07,10,03,47,10.20
2016,07,10,03,48,10.20
2016,07,10,03,49,10.20
2016,07,10,03,50,10.20
2016,07,10,03,51,10.20
2016,07,10,03,52,10.20
2016,07,10,03,53,10.20
2016,07,10,03,54,10.20
2016,07,10,03,55,10.20
2016,07,10,03,56,10.20
2016,07,10,03,57,10.20
2016,07,10,03,58,10.20
2016,07,10,03,59,10.20
2016,07,10,04,00,10.20
2016,07,10,04,01,10.20
2016,07,10,04,02,10.20
2016,07,10,04,03,10.20
2016,07,10,04,04,10.20
2016,07,10,04,05,10.20
2016,07,10,04,06,10.20
2016,07,10,04,07,10.20
2016,07,10,04,08,10.10
2016,07,10,04,09,10.10
2016,07,10,04,10,10.10
2016,07,10,04,11,10.10
2016,07,10,04,12,10.10
2016,07,10,04,13,10.10
2016,07,10,04,14,10.10
2016,07,10,04,15,10.00
2016,07,10,04,16,10.00
2016,07,10,04,17,10.00
2016,07,10,04,18,10.00
2016,07,10,04,19,10.00
2016,07,10,04,20,10.00
2016,07,10,04,21,10.00
2016,07,10,04,22,10.00
2016,07,10,04,23,10.00
2016,07,10,04,24,10.00
2016,07,10,04,25,10.00
2016,07,10,04,26,10.00
2016,07,10,04,27,10.00
2016,07,10,04,28,10.00
2016,07,10,04,29,10.00
2016,07,10,04,30,10.00
2016,07,10,04,31,10.00
2016,07,10,04,32,10.00
2016,07,10,04,33,10.00
2016,07,10,04,34,10.00
2016,07,10,04,35,10.00
2016,07,10,04,36,10.10
2016,07,10,04,37,10.10
2016,07,10,04,38,10.10
2016,07,10,04,39,10.10
2016,07,10,04,40,10.10
2016,07,10,04,41,10.10
2016,07,10,04,42,10.10
2016,07,10,04,43,10.10
2016,07,10,04,44,10.10
2016,07,10,04,45,10.10
2016,07,10,04,46,10.10
2016,07,10,04,47,10.10
2016,07,10,04,48,10.10
2016,07,10,04,49,10.10
2016,07,10,04,50,10.10
2016,07,10,04,51,10.10
2016,07,10,04,52,10.10
2016,07,10,04,53,10.10
2016,07,10,04,54,10.10
2016,07,10,04,55,10.10
2016,07,10,04,56,10.10
2016,07,10,04,57,10.10
2016,07,10,04,58,10.10
2016,07,10,04,59,10.10
2016,07,10,05,00,10.10
2016,07,10,05,01,10.10
2016,07,10,05,02,10.10
2016,07,10,05,03,10.10
2016,07,10,05,04,10.10
2016,07,10,05,05,10.10
2016,07,10,05,06,10.10
2016,07,10,05,07,10.10
2016,07,10,05,08,10.10
2016,07,10,05,09,10.10
2016,07,10,05,10,10.10
2016,07,10,05,11,10.10
2016,07,10,05,12,10.10
2016,07,10,05,13,10.10
2016,07,10,05,14,10.10
2016,07,10,05,15,10.10
2016,07,10,05,16,10.10
2016,07,10,05,17,10.10
2016,07,10,05,18,10.10
2016,07,10,05,19,10.00
2016,07,10,05,20,10.10
2016,07,10,05,21,10.10
2016,07,10,05,22,10.00
2016,07,10,05,23,10.10
2016,07,10,05,24,10.10
2016,07,10,05,25,10.10
2016,07,10,05,26,10.10
2016,07,10,05,27,10.10
2016,07,10,05,28,10.10
2016,07,10,05,29,10.20
2016,07,10,05,30,10.20
2016,07,10,05,31,10.20
2016,07,10,05,32,10.30
2016,07,10,05,33,10.30
2016,07,10,05,34,10.30
2016,07,10,05,35,10.30
2016,07,10,05,36,10.30
2016,07,10,05,37,10.40
2016,07,10,05,38,10.40
2016,07,10,05,39,10.40
2016,07,10,05,40,10.40
2016,07,10,05,41,10.40
2016,07,10,05,42,10.40
2016,07,10,05,43,10.40
2016,07,10,05,44,10.40
2016,07,10,05,45,10.40
2016,07,10,05,46,10.40
2016,07,10,05,47,10.40
2016,07,10,05,48,10.40
2016,07,10,05,49,10.40
2016,07,10,05,50,10.40
2016,07,10,05,51,10.40
2016,07,10,05,52,10.40
2016,07,10,05,53,10.40
2016,07,10,05,54,10.40
2016,07,10,05,55,10.40
2016,07,10,05,56,10.40
2016,07,10,05,57,10.40
2016,07,10,05,58,10.40
2016,07,10,05,59,10.40
2016,07,10,06,00,10.40
2016,07,10,06,01,10.30
2016,07,10,06,02,10.30
2016,07,10,06,03,10.30
2016,07,10,06,04,10.30
2016,07,10,06,05,10.30
2016,07,10,06,06,10.30
2016,07,10,06,07,10.40
2016,07,10,06,08,10.40
2016,07,10,06,09,10.40
2016,07,10,06,10,10.40
2016,07,10,06,11,10.40
2016,07,10,06,12,10.40
2016,07,10,06,13,10.40
2016,07,10,06,14,10.40
2016,07,10,06,15,10.40
2016,07,10,06,16,10.40
2016,07,10,06,17,10.40
2016,07,10,06,18,10.50
2016,07,10,06,19,10.50
2016,07,10,06,20,10.50
2016,07,10,06,21,10.60
2016,07,10,06,22,10.60
2016,07,10,06,23,10.60
2016,07,10,06,24,10.60
2016,07,10,06,25,10.70
2016,07,10,06,26,10.80
2016,07,10,06,27,10.80
2016,07,10,06,28,11.00
2016,07,10,06,29,11.10
2016,07,10,06,30,11.20
2016,07,10,06,31,11.30
2016,07,10,06,32,11.40
2016,07,10,06,33,11.40
2016,07,10,06,34,11.50
2016,07,10,06,35,11.60
2016,07,10,06,36,11.70
2016,07,10,06,37,11.80
2016,07,10,06,38,11.90
2016,07,10,06,39,11.90
2016,07,10,06,40,12.00
2016,07,10,06,41,12.10
2016,07,10,06,42,12.20
2016,07,10,06,43,12.30
2016,07,10,06,44,12.30
2016,07,10,06,45,12.40
2016,07,10,06,46,12.40
2016,07,10,06,47,12.50
2016,07,10,06,48,12.50
2016,07,10,06,49,12.50
2016,07,10,06,50,12.60
2016,07,10,06,51,12.60
2016,07,10,06,52,12.70
2016,07,10,06,53,12.80
2016,07,10,06,54,12.80
2016,07,10,06,55,12.90
2016,07,10,06,56,13.00
2016,07,10,06,57,13.10
2016,07,10,06,58,13.20
2016,07,10,06,59,13.30
2016,07,10,07,00,13.40
2016,07,10,07,01,13.50
2016,07,10,07,02,13.60
2016,07,10,07,03,13.70
2016,07,10,07,04,13.80
2016,07,10,07,05,13.90
2016,07,10,07,06,14.00
2016,07,10,07,07,14.10
2016,07,10,07,08,14.10
2016,07,10,07,09,14.20
2016,07,10,07,10,14.30
2016,07,10,07,11,14.30
2016,07,10,07,12,14.40
2016,07,10,07,13,14.50
2016,07,10,07,14,14.60
2016,07,10,07,15,14.70
2016,07,10,07,16,14.70
2016,07,10,07,17,14.80
2016,07,10,07,18,15.00
2016,07,10,07,19,15.00
2016,07,10,07,20,15.00
2016,07,10,07,21,15.00
2016,07,10,07,22,15.10
2016,07,10,07,23,15.20
2016,07,10,07,24,15.20
2016,07,10,07,25,15.30
2016,07,10,07,26,15.30
2016,07,10,07,27,15.30
2016,07,10,07,28,15.30
2016,07,10,07,29,15.30
2016,07,10,07,30,15.30
2016,07,10,07,31,15.30
2016,07,10,07,32,15.40
2016,07,10,07,33,15.40
2016,07,10,07,34,15.50
2016,07,10,07,35,15.50
2016,07,10,07,36,15.60
2016,07,10,07,37,15.60
2016,07,10,07,38,15.70
2016,07,10,07,39,15.70
2016,07,10,07,40,15.70
2016,07,10,07,41,15.80
2016,07,10,07,42,15.80
2016,07,10,07,43,15.90
2016,07,10,07,44,15.90
2016,07,10,07,45,15.90
2016,07,10,07,46,16.00
2016,07,10,07,47,16.00
2016,07,10,07,48,16.00
2016,07,10,07,49,16.00
2016,07,10,07,50,16.00
2016,07,10,07,51,16.10
2016,07,10,07,52,16.10
2016,07,10,07,53,16.10
2016,07,10,07,54,16.10
2016,07,10,07,55,16.20
2016,07,10,07,56,16.30
2016,07,10,07,57,16.40
2016,07,10,07,58,16.50
2016,07,10,07,59,16.50
2016,07,10,08,00,16.60
2016,07,10,08,01,16.60
2016,07,10,08,02,16.60
2016,07,10,08,03,16.70
2016,07,10,08,04,16.70
2016,07,10,08,05,16.80
2016,07,10,08,06,16.80
2016,07,10,08,07,16.80
2016,07,10,08,08,16.80
2016,07,10,08,09,16.80
2016,07,10,08,10,16.80
2016,07,10,08,11,16.90
2016,07,10,08,12,16.90
2016,07,10,08,13,16.90
2016,07,10,08,14,17.00
2016,07,10,08,15,17.10
2016,07,10,08,16,17.10
2016,07,10,08,17,17.00
2016,07,10,08,18,17.00
2016,07,10,08,19,16.90
2016,07,10,08,20,16.90
2016,07,10,08,21,16.80
2016,07,10,08,22,16.80
2016,07,10,08,23,16.80
2016,07,10,08,24,16.80
2016,07,10,08,25,16.80
2016,07,10,08,26,16.80
2016,07,10,08,27,16.80
2016,07,10,08,28,16.80
2016,07,10,08,29,16.80
2016,07,10,08,30,16.80
2016,07,10,08,31,16.80
2016,07,10,08,32,16.80
2016,07,10,08,33,16.80
2016,07,10,08,34,16.80
2016,07,10,08,35,16.80
2016,07,10,08,36,16.90
2016,07,10,08,37,17.00
2016,07,10,08,38,17.10
2016,07,10,08,39,17.10
2016,07,10,08,40,17.20
2016,07,10,08,41,17.20
2016,07,10,08,42,17.30
2016,07,10,08,43,17.40
2016,07,10,08,44,17.40
2016,07,10,08,45,17.40
2016,07,10,08,46,17.40
2016,07,10,08,47,17.50
2016,07,10,08,48,17.50
2016,07,10,08,49,17.60
2016,07,10,08,50,17.60
2016,07,10,08,51,17.70
2016,07,10,08,52,17.70
2016,07,10,08,53,17.70
2016,07,10,08,54,17.60
2016,07,10,08,55,17.50
2016,07,10,08,56,17.40
2016,07,10,08,57,17.40
2016,07,10,08,58,17.30
2016,07,10,08,59,17.30
2016,07,10,09,00,17.30
2016,07,10,09,01,17.20
2016,07,10,09,02,17.20
2016,07,10,09,03,17.10
2016,07,10,09,04,17.00
2016,07,10,09,05,17.00
2016,07,10,09,06,16.90
2016,07,10,09,07,16.90
2016,07,10,09,08,16.90
2016,07,10,09,09,16.80
2016,07,10,09,10,16.80
2016,07,10,09,11,16.70
2016,07,10,09,12,16.60
2016,07,10,09,13,16.60
2016,07,10,09,14,16.60
2016,07,10,09,15,16.60
2016,07,10,09,16,16.70
2016,07,10,09,17,16.70
2016,07,10,09,18,16.70
2016,07,10,09,19,16.70
2016,07,10,09,20,16.70
2016,07,10,09,21,16.70
2016,07,10,09,22,16.70
2016,07,10,09,23,16.70
2016,07,10,09,24,16.70
2016,07,10,09,25,16.70
2016,07,10,09,26,16.70
2016,07,10,09,27,16.70
2016,07,10,09,28,16.60
2016,07,10,09,29,16.60
2016,07,10,09,30,16.60
2016,07,10,09,31,16.60
2016,07,10,09,32,16.50
2016,07,10,09,33,16.60
2016,07,10,09,34,16.60
2016,07,10,09,35,16.60
2016,07,10,09,36,16.60
2016,07,10,09,37,16.60
2016,07,10,09,38,16.60
2016,07,10,09,39,16.70
2016,07,10,09,40,16.80
2016,07,10,09,41,16.80
2016,07,10,09,42,16.80
2016,07,10,09,43,16.70
2016,07,10,09,44,16.70
2016,07,10,09,45,16.60
2016,07,10,09,46,16.50
2016,07,10,09,47,16.50
2016,07,10,09,48,16.50
2016,07,10,09,49,16.60
2016,07,10,09,50,16.60
2016,07,10,09,51,16.60
2016,07,10,09,52,16.60
2016,07,10,09,53,16.60
2016,07,10,09,54,16.60
2016,07,10,09,55,16.60
2016,07,10,09,56,16.60
2016,07,10,09,57,16.50
2016,07,10,09,58,16.50
2016,07,10,09,59,16.50
2016,07,10,10,00,16.60
2016,07,10,10,01,16.70
2016,07,10,10,02,16.80
2016,07,10,10,03,16.80
2016,07,10,10,04,16.90
2016,07,10,10,05,17.00
2016,07,10,10,06,17.10
2016,07,10,10,07,17.10
2016,07,10,10,08,17.20
2016,07,10,10,09,17.20
2016,07,10,10,10,17.20
2016,07,10,10,11,17.20
2016,07,10,10,12,17.20
2016,07,10,10,13,17.20
2016,07,10,10,14,17.10
2016,07,10,10,15,17.10
2016,07,10,10,16,17.20
2016,07,10,10,17,17.20
2016,07,10,10,18,17.20
2016,07,10,10,19,17.30
2016,07,10,10,20,17.30
2016,07,10,10,21,17.30
2016,07,10,10,22,17.30
2016,07,10,10,23,17.30
2016,07,10,10,24,17.30
2016,07,10,10,25,17.40
2016,07,10,10,26,17.40
2016,07,10,10,27,17.50
2016,07,10,10,28,17.50
2016,07,10,10,29,17.50
2016,07,10,10,30,17.50
2016,07,10,10,31,17.60
2016,07,10,10,32,17.60
2016,07,10,10,33,17.60
2016,07,10,10,34,17.70
2016,07,10,10,35,17.70
2016,07,10,10,36,17.60
2016,07,10,10,37,17.60
2016,07,10,10,38,17.70
2016,07,10,10,39,17.80
2016,07,10,10,40,17.80
2016,07,10,10,41,17.80
2016,07,10,10,42,17.90
2016,07,10,10,43,17.90
2016,07,10,10,44,17.90
2016,07,10,10,45,17.90
2016,07,10,10,46,17.90
2016,07,10,10,47,18.00
2016,07,10,10,48,17.90
2016,07,10,10,49,17.90
2016,07,10,10,50,18.00
2016,07,10,10,51,18.00
2016,07,10,10,52,18.00
2016,07,10,10,53,17.90
2016,07,10,10,54,17.80
2016,07,10,10,55,17.70
2016,07,10,10,56,17.70
2016,07,10,10,57,17.60
2016,07,10,10,58,17.60
2016,07,10,10,59,17.60
2016,07,10,11,00,17.60
2016,07,10,11,01,17.60
2016,07,10,11,02,17.60
2016,07,10,11,03,17.60
2016,07,10,11,04,17.60
2016,07,10,11,05,17.70
2016,07,10,11,06,17.80
2016,07,10,11,07,17.80
2016,07,10,11,08,17.90
2016,07,10,11,09,18.00
2016,07,10,11,10,18.00
2016,07,10,11,11,18.00
2016,07,10,11,12,17.90
2016,07,10,11,13,17.90
2016,07,10,11,14,17.90
2016,07,10,11,15,17.90
2016,07,10,11,16,18.00
2016,07,10,11,17,18.10
2016,07,10,11,18,18.10
2016,07,10,11,19,18.20
2016,07,10,11,20,18.20
2016,07,10,11,21,18.20
2016,07,10,11,22,18.20
2016,07,10,11,23,18.20
2016,07,10,11,24,18.20
2016,07,10,11,25,18.20
2016,07,10,11,26,18.20
2016,07,10,11,27,18.20
2016,07,10,11,28,18.10
2016,07,10,11,29,18.10
2016,07,10,11,30,18.10
2016,07,10,11,31,18.10
2016,07,10,11,32,18.20
2016,07,10,11,33,18.20
2016,07,10,11,34,18.20
2016,07,10,11,35,18.30
2016,07,10,11,36,18.30
2016,07,10,11,37,18.20
2016,07,10,11,38,18.20
2016,07,10,11,39,18.20
2016,07,10,11,40,18.10
2016,07,10,11,41,18.10
2016,07,10,11,42,18.00
2016,07,10,11,43,18.00
2016,07,10,11,44,17.90
2016,07,10,11,45,17.90
2016,07,10,11,46,17.90
2016,07,10,11,47,17.90
2016,07,10,11,48,17.90
2016,07,10,11,49,17.90
2016,07,10,11,50,17.80
2016,07,10,11,51,17.80
2016,07,10,11,52,17.80
2016,07,10,11,53,17.70
2016,07,10,11,54,17.60
2016,07,10,11,55,17.60
2016,07,10,11,56,17.70
2016,07,10,11,57,17.70
2016,07,10,11,58,17.70
2016,07,10,11,59,17.80
2016,07,10,12,00,17.80
2016,07,10,12,01,17.80
2016,07,10,12,02,17.90
2016,07,10,12,03,17.90
2016,07,10,12,04,17.90
2016,07,10,12,05,18.00
2016,07,10,12,06,18.00
2016,07,10,12,07,18.00
2016,07,10,12,08,18.00
2016,07,10,12,09,18.00
2016,07,10,12,10,18.00
2016,07,10,12,11,17.90
2016,07,10,12,12,18.00
2016,07,10,12,13,17.90
2016,07,10,12,14,17.90
2016,07,10,12,15,17.90
2016,07,10,12,16,17.90
2016,07,10,12,17,17.90
2016,07,10,12,18,17.90
2016,07,10,12,19,17.90
2016,07,10,12,20,17.90
2016,07,10,12,21,17.90
2016,07,10,12,22,18.00
2016,07,10,12,23,18.00
2016,07,10,12,24,18.00
2016,07,10,12,25,18.00
2016,07,10,12,26,18.10
2016,07,10,12,27,18.10
2016,07,10,12,28,18.10
2016,07,10,12,29,18.10
2016,07,10,12,30,18.20
2016,07,10,12,31,18.20
2016,07,10,12,32,18.20
2016,07,10,12,33,18.10
2016,07,10,12,34,18.10
2016,07,10,12,35,18.10
2016,07,10,12,36,18.10
2016,07,10,12,37,18.10
2016,07,10,12,38,18.20
2016,07,10,12,39,18.30
2016,07,10,12,40,18.30
2016,07,10,12,41,18.40
2016,07,10,12,42,18.40
2016,07,10,12,43,18.50
2016,07,10,12,44,18.60
2016,07,10,12,45,18.70
2016,07,10,12,46,18.70
2016,07,10,12,47,18.80
2016,07,10,12,48,18.90
2016,07,10,12,49,18.90
2016,07,10,12,50,19.00
2016,07,10,12,51,19.00
2016,07,10,12,52,19.00
2016,07,10,12,53,18.90
2016,07,10,12,54,18.80
2016,07,10,12,55,18.80
2016,07,10,12,56,18.80
2016,07,10,12,57,18.80
2016,07,10,12,58,18.80
2016,07,10,12,59,18.80
2016,07,10,13,00,18.80
2016,07,10,13,01,18.80
2016,07,10,13,02,18.80
2016,07,10,13,03,18.80
2016,07,10,13,04,18.80
2016,07,10,13,05,18.90
2016,07,10,13,06,18.90
2016,07,10,13,07,18.90
2016,07,10,13,08,19.00
2016,07,10,13,09,19.10
2016,07,10,13,10,19.10
2016,07,10,13,11,19.20
2016,07,10,13,12,19.40
2016,07,10,13,13,19.50
2016,07,10,13,14,19.60
2016,07,10,13,15,19.60
2016,07,10,13,16,19.60
2016,07,10,13,17,19.60
2016,07,10,13,18,19.60
2016,07,10,13,19,19.70
2016,07,10,13,20,19.80
2016,07,10,13,21,19.90
2016,07,10,13,22,20.00
2016,07,10,13,23,20.10
2016,07,10,13,24,20.10
2016,07,10,13,25,20.10
2016,07,10,13,26,20.10
2016,07,10,13,27,20.10
2016,07,10,13,28,20.10
2016,07,10,13,29,20.10
2016,07,10,13,30,20.10
2016,07,10,13,31,20.10
2016,07,10,13,32,20.00
2016,07,10,13,33,20.00
2016,07,10,13,34,20.00
2016,07,10,13,35,19.90
2016,07,10,13,36,19.90
2016,07,10,13,37,19.90
2016,07,10,13,38,20.00
2016,07,10,13,39,20.00
2016,07,10,13,40,20.10
2016,07,10,13,41,20.10
2016,07,10,13,42,20.20
2016,07,10,13,43,20.20
2016,07,10,13,44,20.20
2016,07,10,13,45,20.20
2016,07,10,13,46,20.20
2016,07,10,13,47,20.30
2016,07,10,13,48,20.40
2016,07,10,13,49,20.40
2016,07,10,13,50,20.40
2016,07,10,13,51,20.40
2016,07,10,13,52,20.40
2016,07,10,13,53,20.40
2016,07,10,13,54,20.40
2016,07,10,13,55,20.50
2016,07,10,13,56,20.50
2016,07,10,13,57,20.50
2016,07,10,13,58,20.50
2016,07,10,13,59,20.60
2016,07,10,14,00,20.60
2016,07,10,14,01,20.60
2016,07,10,14,02,20.70
2016,07,10,14,03,20.60
2016,07,10,14,04,20.60
2016,07,10,14,05,20.60
2016,07,10,14,06,20.60
2016,07,10,14,07,20.70
2016,07,10,14,08,20.80
2016,07,10,14,09,20.80
2016,07,10,14,10,20.80
2016,07,10,14,11,20.80
2016,07,10,14,12,20.70
2016,07,10,14,13,20.70
2016,07,10,14,14,20.70
2016,07,10,14,15,20.70
2016,07,10,14,16,20.80
2016,07,10,14,17,20.80
2016,07,10,14,18,20.80
2016,07,10,14,19,20.80
2016,07,10,14,20,20.80
2016,07,10,14,21,20.80
2016,07,10,14,22,20.70
2016,07,10,14,23,20.70
2016,07,10,14,24,20.70
2016,07,10,14,25,20.70
2016,07,10,14,26,20.70
2016,07,10,14,27,20.80
2016,07,10,14,28,20.80
2016,07,10,14,29,20.80
2016,07,10,14,30,20.90
2016,07,10,14,31,20.90
2016,07,10,14,32,20.90
2016,07,10,14,33,20.80
2016,07,10,14,34,20.80
2016,07,10,14,35,20.80
2016,07,10,14,36,20.80
2016,07,10,14,37,20.80
2016,07,10,14,38,20.80
2016,07,10,14,39,20.80
2016,07,10,14,40,20.80
2016,07,10,14,41,20.80
2016,07,10,14,42,20.80
2016,07,10,14,43,20.70
2016,07,10,14,44,20.70
2016,07,10,14,45,20.80
2016,07,10,14,46,20.80
2016,07,10,14,47,20.80
2016,07,10,14,48,20.80
2016,07,10,14,49,20.90
2016,07,10,14,50,20.90
2016,07,10,14,51,20.80
2016,07,10,14,52,20.80
2016,07,10,14,53,20.80
2016,07,10,14,54,20.80
2016,07,10,14,55,20.80
2016,07,10,14,56,20.80
2016,07,10,14,57,20.80
2016,07,10,14,58,20.80
2016,07,10,14,59,20.80
2016,07,10,15,00,20.90
2016,07,10,15,01,20.90
2016,07,10,15,02,21.00
2016,07,10,15,03,21.10
2016,07,10,15,04,21.10
2016,07,10,15,05,21.10
2016,07,10,15,06,21.10
2016,07,10,15,07,21.10
2016,07,10,15,08,21.10
2016,07,10,15,09,21.20
2016,07,10,15,10,21.30
2016,07,10,15,11,21.30
2016,07,10,15,12,21.30
2016,07,10,15,13,21.50
2016,07,10,15,14,21.60
2016,07,10,15,15,21.60
2016,07,10,15,16,21.70
2016,07,10,15,17,21.70
2016,07,10,15,18,21.70
2016,07,10,15,19,21.70
2016,07,10,15,20,21.70
2016,07,10,15,21,21.70
2016,07,10,15,22,21.70
2016,07,10,15,23,21.70
2016,07,10,15,24,21.70
2016,07,10,15,25,21.70
2016,07,10,15,26,21.70
2016,07,10,15,27,21.70
2016,07,10,15,28,21.70
2016,07,10,15,29,21.70
2016,07,10,15,30,21.70
2016,07,10,15,31,21.70
2016,07,10,15,32,21.70
2016,07,10,15,33,21.70
2016,07,10,15,34,21.70
2016,07,10,15,35,21.70
2016,07,10,15,36,21.60
2016,07,10,15,37,21.60
2016,07,10,15,38,21.50
2016,07,10,15,39,21.40
2016,07,10,15,40,21.30
2016,07,10,15,41,21.20
2016,07,10,15,42,21.10
2016,07,10,15,43,21.10
2016,07,10,15,44,21.00
2016,07,10,15,45,21.00
2016,07,10,15,46,21.00
2016,07,10,15,47,20.90
2016,07,10,15,48,20.90
2016,07,10,15,49,21.00
2016,07,10,15,50,21.00
2016,07,10,15,51,21.10
2016,07,10,15,52,21.20
2016,07,10,15,53,21.30
2016,07,10,15,54,21.30
2016,07,10,15,55,21.30
2016,07,10,15,56,21.40
2016,07,10,15,57,21.40
2016,07,10,15,58,21.50
2016,07,10,15,59,21.50
2016,07,10,16,00,21.60
2016,07,10,16,01,21.60
2016,07,10,16,02,21.70
2016,07,10,16,03,21.80
2016,07,10,16,04,21.80
2016,07,10,16,05,21.80
2016,07,10,16,06,21.80
2016,07,10,16,07,21.90
2016,07,10,16,08,21.90
2016,07,10,16,09,21.90
2016,07,10,16,10,21.90
2016,07,10,16,11,21.80
2016,07,10,16,12,21.80
2016,07,10,16,13,21.80
2016,07,10,16,14,21.80
2016,07,10,16,15,21.80
2016,07,10,16,16,21.70
2016,07,10,16,17,21.70
2016,07,10,16,18,21.70
2016,07,10,16,19,21.70
2016,07,10,16,20,21.70
2016,07,10,16,21,21.70
2016,07,10,16,22,21.70
2016,07,10,16,23,21.70
2016,07,10,16,24,21.60
2016,07,10,16,25,21.60
2016,07,10,16,26,21.60
2016,07,10,16,27,21.50
2016,07,10,16,28,21.50
2016,07,10,16,29,21.40
2016,07,10,16,30,21.40
2016,07,10,16,31,21.40
2016,07,10,16,32,21.40
2016,07,10,16,33,21.50
2016,07,10,16,34,21.50
2016,07,10,16,35,21.60
2016,07,10,16,36,21.50
2016,07,10,16,37,21.50
2016,07,10,16,38,21.40
2016,07,10,16,39,21.40
2016,07,10,16,40,21.30
2016,07,10,16,41,21.30
2016,07,10,16,42,21.40
2016,07,10,16,43,21.40
2016,07,10,16,44,21.40
2016,07,10,16,45,21.40
2016,07,10,16,46,21.50
2016,07,10,16,47,21.60
2016,07,10,16,48,21.60
2016,07,10,16,49,21.70
2016,07,10,16,50,21.70
2016,07,10,16,51,21.70
2016,07,10,16,52,21.80
2016,07,10,16,53,21.80
2016,07,10,16,54,21.80
2016,07,10,16,55,21.90
2016,07,10,16,56,22.00
2016,07,10,16,57,22.00
2016,07,10,16,58,22.10
2016,07,10,16,59,22.20
2016,07,10,17,00,22.20
2016,07,10,17,01,22.20
2016,07,10,17,02,22.20
2016,07,10,17,03,22.20
2016,07,10,17,04,22.30
2016,07,10,17,05,22.30
2016,07,10,17,06,22.30
2016,07,10,17,07,22.30
2016,07,10,17,08,22.30
2016,07,10,17,09,22.30
2016,07,10,17,10,22.30
2016,07,10,17,11,22.20
2016,07,10,17,12,22.10
2016,07,10,17,13,22.00
2016,07,10,17,14,21.90
2016,07,10,17,15,21.90
2016,07,10,17,16,21.80
2016,07,10,17,17,21.80
2016,07,10,17,18,21.70
2016,07,10,17,19,21.60